Powrót do katalogu

STARLINK-34667

AktywnyŁącznośćVLEO
NORAD 64815·PAYLOAD·🇺🇸 United States

Wystrzelony Jul 16, 2025 z Vandenberg Space Force Base

Loading…

Następne Przeloty (najbliższe 24 godziny)

TLE

ŚwieżeSource: CelesTrak SupGP

Epoka: Sep 14, 2026, 23:00 UTC

1 64815C 25150AB  26257.95881944 -.00049891  00000+0 -41819-2 0  2571
2 64815  70.0023  17.2456 0003113 270.8143 217.3779 14.98348071    18

Śledź STARLINK-34667 w czasie rzeczywistym z AllMySat

Download on the App Store